GTI24TQ SEGU-LEZL

Flight info

Callsign GTI24TQ
Flight time N/A
Altitude 29000
Route BIVAN1 AKPOT UM662 KEXAN/N0501F310 UM662 SALAB DCT 18N052W/M082F310 21N047W/M082F330 24N042W 27N036W 29N030W 31N024W DCT IRKID/N0475F340 DCT IRKID DCT PECKY DCT ASGAM DCT BAROK DCT PESAS N858 OSLEP
Aircraft B77L/H-SDE1E2E3FGHIJ2J3J4J5M1RWXY/LB1D1

Departure

Time 2026-04-24 13:06
Airport José Joaquín de Olmedo International Airport (SEGU)

Arrival

Time N/A
Airport Seville Airport (LEZL)
Time Latitude Longitude Altitude Speed Heading
2026-04-24 12:35 -2.15471 -79.88413 33 ft 0 kts 301°
2026-04-24 12:57 -2.15484 -79.88392 33 ft 4 kts 309°
2026-04-24 12:58 -2.15502 -79.88373 32 ft 4 kts 322°
2026-04-24 12:58 -2.15525 -79.88360 32 ft 4 kts 350°
2026-04-24 12:58 -2.15545 -79.88361 32 ft 1 kts 30°
2026-04-24 13:00 -2.15542 -79.88360 32 ft 4 kts 30°
2026-04-24 13:01 -2.15494 -79.88332 32 ft 9 kts 30°
2026-04-24 13:01 -2.15440 -79.88302 32 ft 9 kts 30°
2026-04-24 13:01 -2.15388 -79.88272 32 ft 9 kts 30°
2026-04-24 13:01 -2.15335 -79.88242 32 ft 9 kts 30°
2026-04-24 13:02 -2.15279 -79.88223 32 ft 8 kts 346°
2026-04-24 13:02 -2.15227 -79.88252 33 ft 9 kts 357°
2026-04-24 13:02 -2.15161 -79.88224 33 ft 15 kts 33°
2026-04-24 13:02 -2.15036 -79.88146 33 ft 22 kts 32°
2026-04-24 13:03 -2.14903 -79.88067 33 ft 22 kts 31°
2026-04-24 13:03 -2.14776 -79.88000 33 ft 18 kts 27°
2026-04-24 13:03 -2.14675 -79.87933 33 ft 18 kts 50°
2026-04-24 13:03 -2.14634 -79.87818 33 ft 18 kts 87°
2026-04-24 13:04 -2.14679 -79.87763 32 ft 8 kts 185°
2026-04-24 13:04 -2.14731 -79.87782 31 ft 8 kts 208°
2026-04-24 13:04 -2.14734 -79.87783 31 ft 0 kts 208°
2026-04-24 13:05 -2.14794 -79.87817 32 ft 40 kts 210°
2026-04-24 13:05 -2.15288 -79.88104 32 ft 122 kts 210°
2026-04-24 13:05 -2.16243 -79.88657 45 ft 192 kts 210°
2026-04-24 13:05 -2.17429 -79.89347 553 ft 202 kts 210°
2026-04-24 13:06 -2.18673 -79.90050 1250 ft 209 kts 209°
2026-04-24 13:06 -2.19939 -79.90749 2066 ft 212 kts 208°
2026-04-24 13:06 -2.21201 -79.91619 2186 ft 231 kts 232°
2026-04-24 13:06 -2.21752 -79.93164 2398 ft 249 kts 272°
2026-04-24 13:07 -2.21173 -79.94812 2764 ft 261 kts 309°
2026-04-24 13:07 -2.19742 -79.95955 3304 ft 269 kts 335°
2026-04-24 13:07 -2.17936 -79.96390 3948 ft 274 kts
2026-04-24 13:07 -2.16059 -79.96041 4612 ft 277 kts 19°
2026-04-24 13:08 -2.14248 -79.95351 5319 ft 280 kts 22°
2026-04-24 13:08 -2.12465 -79.94555 5998 ft 282 kts 28°
2026-04-24 13:08 -2.10803 -79.93494 6635 ft 286 kts 37°
2026-04-24 13:09 -2.07686 -79.90986 7931 ft 292 kts 39°
2026-04-24 13:09 -2.06114 -79.89690 8554 ft 295 kts 39°
2026-04-24 13:09 -2.04517 -79.88383 9160 ft 298 kts 39°
2026-04-24 13:09 -2.02894 -79.87064 9767 ft 301 kts 39°
2026-04-24 13:10 -2.01266 -79.85751 10310 ft 306 kts 39°
2026-04-24 13:10 -1.99556 -79.84377 10493 ft 325 kts 39°
2026-04-24 13:10 -1.97740 -79.82923 10656 ft 344 kts 38°
2026-04-24 13:10 -1.95811 -79.81383 10811 ft 363 kts 38°
2026-04-24 13:11 -1.93780 -79.79764 10990 ft 380 kts 38°
2026-04-24 13:11 -1.91709 -79.78114 11366 ft 390 kts 38°
2026-04-24 13:11 -1.89561 -79.76406 11846 ft 396 kts 38°
2026-04-24 13:11 -1.87390 -79.74678 12383 ft 401 kts 38°
2026-04-24 13:12 -1.85198 -79.72934 12949 ft 403 kts 38°
2026-04-24 13:12 -1.82993 -79.71181 13521 ft 406 kts 38°
2026-04-24 13:12 -1.80762 -79.69407 13986 ft 410 kts 38°
2026-04-24 13:12 -1.78543 -79.67641 14473 ft 413 kts 38°
2026-04-24 13:13 -1.76279 -79.65840 14925 ft 417 kts 38°
2026-04-24 13:13 -1.73997 -79.64025 15368 ft 421 kts 38°
2026-04-24 13:13 -1.71697 -79.62196 15833 ft 423 kts 38°
2026-04-24 13:13 -1.69384 -79.60356 16260 ft 426 kts 38°
2026-04-24 13:14 -1.67085 -79.58527 16653 ft 429 kts 38°
2026-04-24 13:14 -1.64736 -79.56659 17031 ft 432 kts 38°
2026-04-24 13:14 -1.62377 -79.54783 17398 ft 435 kts 38°
2026-04-24 13:14 -1.60001 -79.52891 17761 ft 437 kts 39°
2026-04-24 13:15 -1.57731 -79.50850 18087 ft 440 kts 46°
2026-04-24 13:15 -1.55718 -79.48586 18399 ft 442 kts 51°
2026-04-24 13:15 -1.53923 -79.46074 18708 ft 444 kts 57°
2026-04-24 13:15 -1.52230 -79.43464 18943 ft 448 kts 57°
2026-04-24 13:16 -1.50526 -79.40833 19211 ft 451 kts 57°
2026-04-24 13:16 -1.48812 -79.38196 19539 ft 452 kts 57°
2026-04-24 13:16 -1.47104 -79.35581 19844 ft 453 kts 57°
2026-04-24 13:16 -1.45370 -79.32937 20104 ft 455 kts 57°
2026-04-24 13:17 -1.43629 -79.30288 20335 ft 458 kts 57°
2026-04-24 13:17 -1.41870 -79.27618 20567 ft 460 kts 57°
2026-04-24 13:17 -1.40102 -79.24935 20807 ft 462 kts 57°
2026-04-24 13:17 -1.38330 -79.22246 21018 ft 464 kts 57°
2026-04-24 13:18 -1.36570 -79.19574 21208 ft 467 kts 57°
2026-04-24 13:18 -1.34775 -79.16851 21465 ft 468 kts 57°
2026-04-24 13:18 -1.32999 -79.14155 21692 ft 469 kts 57°
2026-04-24 13:18 -1.31193 -79.11414 21907 ft 471 kts 57°
2026-04-24 13:19 -1.29388 -79.08673 22118 ft 472 kts 57°
2026-04-24 13:19 -1.27578 -79.05926 22323 ft 474 kts 57°
2026-04-24 13:19 -1.25751 -79.03152 22521 ft 476 kts 57°
2026-04-24 13:19 -1.23950 -79.00418 22707 ft 477 kts 57°
2026-04-24 13:20 -1.22118 -78.97638 22894 ft 479 kts 57°
2026-04-24 13:20 -1.20278 -78.94845 23082 ft 481 kts 57°
2026-04-24 13:20 -1.18432 -78.92039 23261 ft 482 kts 57°
2026-04-24 13:20 -1.16583 -78.89229 23435 ft 484 kts 57°
2026-04-24 13:21 -1.14748 -78.86441 23603 ft 485 kts 57°
2026-04-24 13:21 -1.12886 -78.83610 23773 ft 487 kts 57°
2026-04-24 13:21 -1.11021 -78.80776 23939 ft 488 kts 57°
2026-04-24 13:21 -1.09149 -78.77931 24094 ft 489 kts 57°
2026-04-24 13:22 -1.07297 -78.75116 24242 ft 491 kts 57°
2026-04-24 13:22 -1.05407 -78.72242 24405 ft 492 kts 57°
2026-04-24 13:22 -1.03550 -78.69420 24585 ft 492 kts 57°
2026-04-24 13:22 -1.01669 -78.66561 24800 ft 492 kts 57°
2026-04-24 13:23 -0.99784 -78.63697 25027 ft 491 kts 57°
2026-04-24 13:23 -0.97909 -78.60847 25275 ft 490 kts 57°
2026-04-24 13:23 -0.96033 -78.57996 25558 ft 488 kts 57°
2026-04-24 13:23 -0.94167 -78.55159 25840 ft 486 kts 57°
2026-04-24 13:24 -0.92337 -78.52377 26041 ft 486 kts 57°
2026-04-24 13:24 -0.90472 -78.49543 26158 ft 488 kts 57°
2026-04-24 13:24 -0.88598 -78.46696 26248 ft 490 kts 57°
2026-04-24 13:24 -0.86714 -78.43837 26359 ft 491 kts 57°
2026-04-24 13:25 -0.84854 -78.41018 26490 ft 492 kts 57°
2026-04-24 13:25 -0.82961 -78.38152 26627 ft 493 kts 57°
2026-04-24 13:25 -0.81069 -78.35285 26752 ft 494 kts 57°
2026-04-24 13:25 -0.79187 -78.32433 26868 ft 495 kts 57°
2026-04-24 13:26 -0.78409 -78.31254 26914 ft 496 kts 57°
2026-04-24 13:26 -0.76633 -78.28562 27014 ft 497 kts 57°
2026-04-24 13:26 -0.74729 -78.25675 27122 ft 498 kts 57°
2026-04-24 13:27 -0.72826 -78.22790 27233 ft 499 kts 57°
2026-04-24 13:27 -0.70937 -78.19926 27338 ft 500 kts 57°
2026-04-24 13:27 -0.69015 -78.17011 27444 ft 501 kts 57°
2026-04-24 13:27 -0.67089 -78.14091 27543 ft 502 kts 57°
2026-04-24 13:28 -0.65183 -78.11201 27639 ft 502 kts 57°
2026-04-24 13:28 -0.63253 -78.08275 27735 ft 503 kts 57°
2026-04-24 13:28 -0.61321 -78.05347 27829 ft 504 kts 57°
2026-04-24 13:28 -0.60041 -78.03406 27888 ft 505 kts 57°
2026-04-24 13:29 -0.58106 -78.00472 27979 ft 506 kts 57°
2026-04-24 13:29 -0.55528 -77.96564 28099 ft 507 kts 57°
2026-04-24 13:29 -0.52292 -77.91658 28236 ft 508 kts 57°
2026-04-24 13:30 -0.48389 -77.85741 28396 ft 509 kts 57°
2026-04-24 13:30 -0.44474 -77.79805 28550 ft 511 kts 57°
2026-04-24 13:31 -0.40587 -77.73906 28642 ft 509 kts 57°
2026-04-24 13:31 -0.36674 -77.67959 28686 ft 513 kts 57°
2026-04-24 13:32 -0.32743 -77.61985 28839 ft 514 kts 57°
2026-04-24 13:32 -0.28833 -77.56044 28963 ft 515 kts 57°
2026-04-24 13:33 -0.24896 -77.50060 29004 ft 516 kts 57°
2026-04-24 13:33 -0.20933 -77.44039 29030 ft 519 kts 57°
2026-04-24 13:34 -0.16968 -77.38015 29053 ft 522 kts 57°
2026-04-24 13:34 -0.12962 -77.31928 29072 ft 524 kts 57°
2026-04-24 13:35 -0.09008 -77.25919 29091 ft 526 kts 57°
2026-04-24 13:35 -0.04972 -77.19787 29104 ft 528 kts 57°
2026-04-24 13:36 -0.00923 -77.13634 29115 ft 529 kts 57°
2026-04-24 13:36 0.03111 -77.07505 29125 ft 531 kts 57°
2026-04-24 13:37 0.07174 -77.01330 29133 ft 532 kts 57°
2026-04-24 13:37 0.11250 -76.95143 29141 ft 532 kts 57°
2026-04-24 13:38 0.15312 -76.89003 29147 ft 533 kts 57°
2026-04-24 13:38 0.19416 -76.82797 29154 ft 534 kts 57°
2026-04-24 13:39 0.23489 -76.76633 29159 ft 534 kts 57°
2026-04-24 13:39 0.27590 -76.70426 29166 ft 534 kts 57°
2026-04-24 13:40 0.31736 -76.64240 29173 ft 535 kts 56°
2026-04-24 13:40 0.35913 -76.58126 29179 ft 535 kts 56°
2026-04-24 13:41 0.40118 -76.51972 29185 ft 535 kts 56°
2026-04-24 13:41 0.44290 -76.45843 29190 ft 535 kts 56°
2026-04-24 13:42 0.48486 -76.39667 29197 ft 535 kts 56°
2026-04-24 13:42 0.52651 -76.33536 29213 ft 535 kts 56°
2026-04-24 13:43 0.56840 -76.27372 29222 ft 535 kts 56°
2026-04-24 13:43 0.61008 -76.21239 29234 ft 535 kts 56°
2026-04-24 13:44 0.65198 -76.15074 29245 ft 535 kts 56°
2026-04-24 13:44 0.69386 -76.08911 29256 ft 535 kts 56°
2026-04-24 13:45 0.73571 -76.02753 29267 ft 535 kts 56°
2026-04-24 13:45 0.77753 -75.96597 29278 ft 535 kts 56°
2026-04-24 13:46 0.81935 -75.90443 29288 ft 535 kts 56°
2026-04-24 13:46 0.86117 -75.84288 29301 ft 535 kts 56°
2026-04-24 13:47 0.90299 -75.78133 29312 ft 535 kts 56°
2026-04-24 13:47 0.94457 -75.72013 29325 ft 535 kts 56°
2026-04-24 13:48 0.98636 -75.65861 29336 ft 535 kts 56°
2026-04-24 13:48 1.02816 -75.59709 29347 ft 535 kts 56°
2026-04-24 13:49 1.07001 -75.53547 29359 ft 535 kts 56°
2026-04-24 13:49 1.11183 -75.47391 29371 ft 535 kts 56°
2026-04-24 13:50 1.15366 -75.41231 29382 ft 535 kts 56°
2026-04-24 13:50 1.19547 -75.35076 29396 ft 535 kts 56°
2026-04-24 13:51 1.23725 -75.28923 29409 ft 535 kts 56°
2026-04-24 13:51 1.27881 -75.22804 29421 ft 535 kts 56°
2026-04-24 13:52 1.32061 -75.16648 29436 ft 535 kts 56°
2026-04-24 13:52 1.36239 -75.10494 29448 ft 535 kts 56°
2026-04-24 13:53 1.40419 -75.04336 29462 ft 535 kts 56°
2026-04-24 13:53 1.44601 -74.98177 29476 ft 535 kts 56°
2026-04-24 13:54 1.48780 -74.92021 29490 ft 535 kts 56°
2026-04-24 13:54 1.52955 -74.85870 29503 ft 535 kts 56°
2026-04-24 13:55 1.57134 -74.79712 29519 ft 535 kts 56°
2026-04-24 13:55 1.61314 -74.73553 29528 ft 535 kts 56°
2026-04-24 13:56 1.65493 -74.67396 29539 ft 535 kts 56°
2026-04-24 13:56 1.69670 -74.61239 29549 ft 535 kts 56°
2026-04-24 13:57 1.73831 -74.55105 29562 ft 535 kts 56°
2026-04-24 13:57 1.78012 -74.48943 29573 ft 535 kts 56°
2026-04-24 13:58 1.82192 -74.42780 29587 ft 535 kts 56°
2026-04-24 13:58 1.86369 -74.36622 29601 ft 535 kts 56°
2026-04-24 13:59 1.90527 -74.30490 29615 ft 535 kts 56°
2026-04-24 13:59 1.94710 -74.24321 29627 ft 535 kts 56°
2026-04-24 14:00 1.98885 -74.18163 29642 ft 535 kts 56°
2026-04-24 14:00 2.03093 -74.12063 29652 ft 535 kts 55°
2026-04-24 14:01 2.07386 -74.05975 29665 ft 535 kts 54°
2026-04-24 14:01 2.11675 -73.99891 29681 ft 535 kts 55°
2026-04-24 14:02 2.15934 -73.93821 29690 ft 535 kts 55°
2026-04-24 14:02 2.20208 -73.87718 29705 ft 535 kts 55°
2026-04-24 14:03 2.24478 -73.81621 29718 ft 535 kts 55°
2026-04-24 14:03 2.28729 -73.75550 29729 ft 535 kts 55°
2026-04-24 14:04 2.33006 -73.69444 29743 ft 535 kts 55°
2026-04-24 14:04 2.37273 -73.63350 29756 ft 535 kts 55°
2026-04-24 14:05 2.41524 -73.57280 29764 ft 535 kts 55°
2026-04-24 14:05 2.45797 -73.51176 29774 ft 535 kts 55°
2026-04-24 14:06 2.50050 -73.45100 29783 ft 535 kts 55°
2026-04-24 14:06 2.54320 -73.38998 29792 ft 535 kts 55°
2026-04-24 14:07 2.58587 -73.32901 29801 ft 535 kts 55°
2026-04-24 14:07 2.62860 -73.26794 29811 ft 535 kts 55°
2026-04-24 14:08 2.67104 -73.20728 29819 ft 535 kts 55°
2026-04-24 14:08 2.71381 -73.14613 29831 ft 535 kts 55°
2026-04-24 14:09 2.75629 -73.08540 29842 ft 535 kts 55°
2026-04-24 14:09 2.79897 -73.02437 29852 ft 535 kts 55°
2026-04-24 14:10 2.84151 -72.96354 29867 ft 535 kts 55°
2026-04-24 14:10 2.88423 -72.90243 29879 ft 535 kts 55°
2026-04-24 14:11 2.92663 -72.84175 29891 ft 535 kts 55°
2026-04-24 14:12 2.99060 -72.75023 29912 ft 535 kts 55°
2026-04-24 14:12 3.03333 -72.68907 29923 ft 535 kts 55°
2026-04-24 14:13 3.07570 -72.62840 29935 ft 535 kts 55°
2026-04-24 14:13 3.11842 -72.56722 29947 ft 534 kts 55°
2026-04-24 14:14 3.16079 -72.50651 29958 ft 535 kts 55°
2026-04-24 14:14 3.22433 -72.41503 29973 ft 534 kts 55°
2026-04-24 14:15 3.26678 -72.35388 29984 ft 534 kts 55°
2026-04-24 14:15 3.30939 -72.29251 29996 ft 534 kts 55°
2026-04-24 14:16 3.35159 -72.23172 30006 ft 534 kts 55°
2026-04-24 14:17 3.40834 -72.15008 30017 ft 534 kts 55°
2026-04-24 14:17 3.47207 -72.05892 30030 ft 534 kts 55°
2026-04-24 14:18 3.51476 -71.99782 30042 ft 534 kts 55°
2026-04-24 14:18 3.55742 -71.93670 30049 ft 534 kts 55°
2026-04-24 14:19 3.59972 -71.87606 30059 ft 534 kts 55°
2026-04-24 14:19 3.64230 -71.81503 30070 ft 534 kts 55°
2026-04-24 14:20 3.68480 -71.75410 30079 ft 534 kts 55°
2026-04-24 14:20 3.72755 -71.69279 30089 ft 534 kts 55°
2026-04-24 14:21 3.76986 -71.63211 30097 ft 534 kts 55°
2026-04-24 14:21 3.81250 -71.57094 30106 ft 534 kts 55°
2026-04-24 14:22 3.85482 -71.51020 30116 ft 534 kts 55°
2026-04-24 14:23 3.91856 -71.41854 30134 ft 534 kts 55°
2026-04-24 14:23 3.96085 -71.35756 30142 ft 534 kts 55°
2026-04-24 14:24 4.00329 -71.29638 30152 ft 534 kts 55°
2026-04-24 14:24 4.04581 -71.23507 30166 ft 534 kts 55°
2026-04-24 14:25 4.08798 -71.17426 30174 ft 534 kts 55°
2026-04-24 14:25 4.13046 -71.11300 30182 ft 534 kts 55°
2026-04-24 14:26 4.17269 -71.05208 30188 ft 534 kts 55°
2026-04-24 14:26 4.21512 -70.99086 30198 ft 534 kts 55°
2026-04-24 14:27 4.25758 -70.92957 30211 ft 534 kts 55°
2026-04-24 14:27 4.29979 -70.86863 30221 ft 534 kts 55°
2026-04-24 14:28 4.34229 -70.80727 30232 ft 534 kts 55°
2026-04-24 14:28 4.38438 -70.74648 30245 ft 534 kts 55°
2026-04-24 14:29 4.42685 -70.68514 30255 ft 534 kts 55°
2026-04-24 14:29 4.46900 -70.62422 30267 ft 534 kts 55°
2026-04-24 14:30 4.50424 -70.57329 30276 ft 534 kts 55°
2026-04-24 14:30 4.55357 -70.50198 30287 ft 534 kts 55°
2026-04-24 14:31 4.59588 -70.44078 30297 ft 534 kts 55°
2026-04-24 14:31 4.63840 -70.37928 30307 ft 534 kts 55°
2026-04-24 14:32 4.68046 -70.31842 30316 ft 534 kts 55°
2026-04-24 14:32 4.72283 -70.25700 30326 ft 534 kts 55°
2026-04-24 14:33 4.76483 -70.19605 30357 ft 534 kts 55°
2026-04-24 14:33 4.80718 -70.13458 30362 ft 534 kts 55°
2026-04-24 14:34 4.84946 -70.07322 30368 ft 534 kts 55°
2026-04-24 14:34 4.89140 -70.01234 30374 ft 534 kts 55°
2026-04-24 14:35 4.93377 -69.95081 30383 ft 534 kts 55°
2026-04-24 14:35 4.97576 -69.88981 30392 ft 534 kts 55°
2026-04-24 14:36 5.01795 -69.82851 30401 ft 534 kts 55°
2026-04-24 14:36 5.06027 -69.76700 30409 ft 534 kts 55°
2026-04-24 14:37 5.10222 -69.70601 30420 ft 534 kts 55°
2026-04-24 14:37 5.14439 -69.64469 30428 ft 534 kts 55°
2026-04-24 14:38 5.18667 -69.58320 30434 ft 534 kts 55°
2026-04-24 14:38 5.22888 -69.52178 30441 ft 534 kts 55°
2026-04-24 14:39 5.27113 -69.46030 30451 ft 534 kts 55°
2026-04-24 14:39 5.31303 -69.39931 30460 ft 534 kts 55°
2026-04-24 14:40 5.35527 -69.33780 30467 ft 534 kts 55°
2026-04-24 14:40 5.39745 -69.27636 30476 ft 534 kts 55°
2026-04-24 14:41 5.43936 -69.21529 30484 ft 534 kts 55°
2026-04-24 14:41 5.48148 -69.15391 30492 ft 534 kts 55°
2026-04-24 14:42 5.52367 -69.09239 30499 ft 534 kts 55°
2026-04-24 14:42 5.56565 -69.03118 30506 ft 534 kts 55°
2026-04-24 14:43 5.60784 -68.96964 30514 ft 534 kts 55°
2026-04-24 14:43 5.64975 -68.90848 30523 ft 534 kts 56°
2026-04-24 14:44 5.69194 -68.84691 30529 ft 534 kts 56°
2026-04-24 14:44 5.73379 -68.78581 30536 ft 534 kts 56°
2026-04-24 14:45 5.77592 -68.72428 30543 ft 534 kts 56°
2026-04-24 14:45 5.81805 -68.66273 30550 ft 534 kts 56°
2026-04-24 14:46 5.85989 -68.60159 30557 ft 534 kts 56°
2026-04-24 14:46 5.90197 -68.54007 30564 ft 534 kts 56°
2026-04-24 14:47 5.93693 -68.48895 30570 ft 534 kts 56°
2026-04-24 14:47 5.98619 -68.41690 30581 ft 534 kts 56°
2026-04-24 14:48 6.02800 -68.35573 30590 ft 533 kts 56°
2026-04-24 14:48 6.07008 -68.29412 30601 ft 533 kts 56°
2026-04-24 14:49 6.11189 -68.23289 30608 ft 533 kts 56°
2026-04-24 14:49 6.15397 -68.17134 30617 ft 533 kts 55°
2026-04-24 14:50 6.20130 -68.11390 30622 ft 533 kts 47°
2026-04-24 14:50 6.25138 -68.05943 30628 ft 533 kts 47°
2026-04-24 14:51 6.30171 -68.00428 30646 ft 533 kts 47°
2026-04-24 14:51 6.35132 -67.94931 30652 ft 533 kts 48°
2026-04-24 14:52 6.40113 -67.89393 30658 ft 533 kts 48°
2026-04-24 14:52 6.45070 -67.83885 30672 ft 533 kts 48°
2026-04-24 14:53 6.50045 -67.78358 30677 ft 533 kts 48°
2026-04-24 14:53 6.55033 -67.72816 30685 ft 533 kts 48°
2026-04-24 14:54 6.59995 -67.67302 30692 ft 533 kts 48°
2026-04-24 14:54 6.64986 -67.61752 30702 ft 533 kts 48°
2026-04-24 14:55 6.69134 -67.57138 30717 ft 533 kts 48°
2026-04-24 14:55 6.74920 -67.50700 30730 ft 533 kts 48°
2026-04-24 14:56 6.79912 -67.45141 30737 ft 533 kts 48°
2026-04-24 14:56 6.84854 -67.39631 30743 ft 533 kts 48°
2026-04-24 14:57 6.89842 -67.34070 30751 ft 533 kts 48°
2026-04-24 14:57 6.94789 -67.28549 30761 ft 533 kts 48°
2026-04-24 14:58 6.99746 -67.23034 30772 ft 533 kts 47°
2026-04-24 14:58 7.04761 -67.17534 30782 ft 533 kts 47°
2026-04-24 14:59 7.09782 -67.12024 30789 ft 533 kts 47°
2026-04-24 14:59 7.14781 -67.06497 30799 ft 533 kts 48°
2026-04-24 15:00 7.19690 -67.00990 30878 ft 527 kts 48°
2026-04-24 15:00 7.24547 -66.95527 30968 ft 519 kts 48°
2026-04-24 15:01 7.29346 -66.90140 30996 ft 514 kts 48°
2026-04-24 15:01 7.34124 -66.84782 30994 ft 511 kts 48°
2026-04-24 15:02 7.38839 -66.79492 30998 ft 508 kts 48°
2026-04-24 15:02 7.43549 -66.74206 30999 ft 505 kts 48°
2026-04-24 15:03 7.47445 -66.69831 31000 ft 503 kts 48°
2026-04-24 15:03 7.52880 -66.63726 30997 ft 501 kts 48°
2026-04-24 15:04 7.57531 -66.58499 31001 ft 499 kts 48°
2026-04-24 15:04 7.61382 -66.54170 31000 ft 497 kts 48°
2026-04-24 15:05 7.66004 -66.48972 30998 ft 496 kts 48°
2026-04-24 15:05 7.70578 -66.43828 31002 ft 494 kts 48°
2026-04-24 15:06 7.75178 -66.38663 30999 ft 493 kts 48°
2026-04-24 15:06 7.79735 -66.33553 31000 ft 491 kts 48°
2026-04-24 15:07 7.84309 -66.28417 31000 ft 490 kts 48°
2026-04-24 15:07 7.88836 -66.23330 31000 ft 489 kts 48°
2026-04-24 15:08 7.93386 -66.18215 31001 ft 488 kts 48°
2026-04-24 15:08 7.97941 -66.13119 31003 ft 487 kts 47°
2026-04-24 15:09 8.02576 -66.08182 31000 ft 486 kts 46°
2026-04-24 15:09 8.07272 -66.03252 31002 ft 485 kts 46°
2026-04-24 15:10 8.11914 -65.98350 30999 ft 485 kts 46°
2026-04-24 15:10 8.16574 -65.93403 31001 ft 484 kts 46°
2026-04-24 15:11 8.21188 -65.88496 31000 ft 483 kts 46°
2026-04-24 15:11 8.25826 -65.83562 31001 ft 483 kts 46°
2026-04-24 15:12 8.30420 -65.78677 31002 ft 482 kts 46°
2026-04-24 15:12 8.37361 -65.71290 31002 ft 481 kts 46°
2026-04-24 15:13 8.41955 -65.66399 31001 ft 481 kts 46°
2026-04-24 15:13 8.46546 -65.61510 31000 ft 481 kts 46°
2026-04-24 15:14 8.51154 -65.56601 31000 ft 480 kts 46°
2026-04-24 15:14 8.55753 -65.51698 31002 ft 480 kts 46°
2026-04-24 15:15 8.60328 -65.46820 31001 ft 479 kts 46°
2026-04-24 15:15 8.64898 -65.41946 31000 ft 479 kts 46°
2026-04-24 15:16 8.69488 -65.37047 31001 ft 479 kts 46°
2026-04-24 15:16 8.74084 -65.32140 31001 ft 479 kts 46°
2026-04-24 15:17 8.78639 -65.27275 31001 ft 478 kts 46°
2026-04-24 15:17 8.83216 -65.22386 31002 ft 478 kts 46°
2026-04-24 15:18 8.87795 -65.17491 31000 ft 478 kts 46°
2026-04-24 15:18 8.92340 -65.12630 31002 ft 478 kts 46°
2026-04-24 15:19 8.96917 -65.07736 31001 ft 478 kts 46°
2026-04-24 15:19 9.01483 -65.02855 31002 ft 478 kts 46°
2026-04-24 15:20 9.06046 -64.97972 31001 ft 477 kts 46°
2026-04-24 15:20 9.10585 -64.93114 31003 ft 477 kts 46°
2026-04-24 15:21 9.15153 -64.88221 31000 ft 477 kts 46°
2026-04-24 15:21 9.19724 -64.83323 30999 ft 477 kts 46°
2026-04-24 15:22 9.24259 -64.78462 31001 ft 477 kts 46°
2026-04-24 15:23 9.31093 -64.71138 31002 ft 477 kts 46°
2026-04-24 15:23 9.37936 -64.63799 31003 ft 477 kts 46°
2026-04-24 15:25 9.48531 -64.52433 30999 ft 477 kts 46°
2026-04-24 15:26 9.60665 -64.39396 31003 ft 477 kts 46°
2026-04-24 15:27 9.74311 -64.24718 31003 ft 477 kts 46°
2026-04-24 15:29 9.87922 -64.10058 31003 ft 477 kts 47°
2026-04-24 15:31 10.03829 -63.92892 31000 ft 477 kts 47°
2026-04-24 15:33 10.21956 -63.73275 31003 ft 477 kts 47°
2026-04-24 15:34 10.33322 -63.60965 31002 ft 477 kts 47°
2026-04-24 15:35 10.44659 -63.48675 30999 ft 477 kts 47°
2026-04-24 15:36 10.49171 -63.43779 31003 ft 477 kts 47°
2026-04-24 15:36 10.55998 -63.36378 31002 ft 477 kts 46°
2026-04-24 15:37 10.60552 -63.31515 31000 ft 477 kts 46°
2026-04-24 15:37 10.65140 -63.26611 31001 ft 477 kts 46°
2026-04-24 15:38 10.69641 -63.21686 30999 ft 477 kts 47°
2026-04-24 15:38 10.74134 -63.16678 31002 ft 477 kts 47°
2026-04-24 15:39 10.78617 -63.11740 31001 ft 477 kts 47°
2026-04-24 15:39 10.83176 -63.06802 31001 ft 477 kts 47°
2026-04-24 15:40 10.87729 -63.01873 31001 ft 477 kts 47°
2026-04-24 15:40 10.92252 -62.96961 31001 ft 477 kts 47°
2026-04-24 15:41 10.96798 -62.92016 31001 ft 477 kts 47°
2026-04-24 15:41 11.01311 -62.87104 31001 ft 477 kts 47°
2026-04-24 15:42 11.05841 -62.82171 31001 ft 477 kts 47°
2026-04-24 15:42 11.10380 -62.77226 31001 ft 477 kts 47°
2026-04-24 15:43 11.14891 -62.72311 31001 ft 477 kts 47°
2026-04-24 15:43 11.19433 -62.67357 31001 ft 477 kts 47°
2026-04-24 15:44 11.23918 -62.62368 30996 ft 477 kts 49°
2026-04-24 15:44 11.28175 -62.57214 31001 ft 476 kts 50°
2026-04-24 15:45 11.32404 -62.52013 31001 ft 477 kts 50°
2026-04-24 15:45 11.36629 -62.46837 31001 ft 477 kts 50°
2026-04-24 15:46 11.40893 -62.41635 31002 ft 477 kts 50°
2026-04-24 15:46 11.45148 -62.36450 31001 ft 477 kts 50°
2026-04-24 15:47 11.49379 -62.31292 31001 ft 477 kts 50°
2026-04-24 15:47 11.53643 -62.26089 31002 ft 477 kts 50°
2026-04-24 15:48 11.57880 -62.20916 31001 ft 477 kts 50°
2026-04-24 15:48 11.62145 -62.15706 31001 ft 477 kts 50°
2026-04-24 15:49 11.66382 -62.10528 31002 ft 477 kts 50°
2026-04-24 15:49 11.70643 -62.05318 31001 ft 477 kts 50°
2026-04-24 15:50 11.74873 -62.00142 31001 ft 477 kts 50°
2026-04-24 15:50 11.79143 -61.94915 31009 ft 478 kts 50°
2026-04-24 15:51 11.83403 -61.89698 31054 ft 483 kts 50°
2026-04-24 15:51 11.87744 -61.84378 31093 ft 488 kts 50°
2026-04-24 15:52 11.92081 -61.79060 31129 ft 492 kts 50°
2026-04-24 15:52 11.96491 -61.73650 31164 ft 496 kts 50°
2026-04-24 15:53 12.00906 -61.68231 31197 ft 500 kts 50°
2026-04-24 15:53 12.05382 -61.62734 31228 ft 504 kts 50°
2026-04-24 15:54 12.09125 -61.58134 31250 ft 507 kts 50°
2026-04-24 15:54 12.13658 -61.52561 31276 ft 510 kts 50°
2026-04-24 15:55 12.18196 -61.46978 31300 ft 513 kts 50°
2026-04-24 15:55 12.22778 -61.41338 31322 ft 516 kts 50°
2026-04-24 15:56 12.27360 -61.35694 31342 ft 518 kts 50°
2026-04-24 15:56 12.31984 -61.29995 31360 ft 521 kts 50°
2026-04-24 15:57 12.36597 -61.24307 31375 ft 523 kts 50°
2026-04-24 15:57 12.41250 -61.18565 31387 ft 524 kts 50°
2026-04-24 15:58 12.45906 -61.12817 31398 ft 526 kts 50°
2026-04-24 15:58 12.50552 -61.07077 31408 ft 527 kts 50°
2026-04-24 15:59 12.55241 -61.01281 31415 ft 528 kts 50°
2026-04-24 15:59 12.59931 -60.95480 31423 ft 529 kts 50°
2026-04-24 16:00 12.64629 -60.89664 31429 ft 529 kts 50°
2026-04-24 16:00 12.69302 -60.83877 31435 ft 530 kts 50°
2026-04-24 16:01 12.74002 -60.78051 31441 ft 530 kts 50°
2026-04-24 16:01 12.78712 -60.72210 31447 ft 531 kts 50°
2026-04-24 16:02 12.83397 -60.66396 31453 ft 531 kts 50°
2026-04-24 16:02 12.88117 -60.60535 31458 ft 531 kts 50°
2026-04-24 16:03 12.92795 -60.54722 31464 ft 531 kts 50°
2026-04-24 16:03 12.97521 -60.48846 31469 ft 532 kts 50°
2026-04-24 16:04 13.02211 -60.43010 31474 ft 532 kts 50°
2026-04-24 16:04 13.06900 -60.37172 31480 ft 532 kts 50°
2026-04-24 16:05 13.13970 -60.28362 31487 ft 532 kts 50°
2026-04-24 16:06 13.20988 -60.19608 31495 ft 532 kts 50°
2026-04-24 16:07 13.28064 -60.10772 31503 ft 532 kts 51°
2026-04-24 16:07 13.34881 -60.01827 31509 ft 532 kts 56°
2026-04-24 16:08 13.41120 -59.92358 31520 ft 532 kts 56°
2026-04-24 16:09 13.47339 -59.82940 31528 ft 532 kts 56°
2026-04-24 16:09 13.51490 -59.76690 31533 ft 532 kts 56°
2026-04-24 16:11 13.61939 -59.60944 31546 ft 532 kts 56°
2026-04-24 16:11 13.66084 -59.54685 31551 ft 532 kts 56°
2026-04-24 16:12 13.72339 -59.45232 31559 ft 532 kts 56°
2026-04-24 16:13 13.78560 -59.35821 31567 ft 532 kts 56°
2026-04-24 16:14 13.86905 -59.23180 31577 ft 532 kts 56°
2026-04-24 16:14 13.93111 -59.13767 31585 ft 532 kts 56°
2026-04-24 16:15 13.99357 -59.04282 31592 ft 532 kts 56°
2026-04-24 16:16 14.05595 -58.94799 31600 ft 532 kts 56°
2026-04-24 16:17 14.15945 -58.79041 31613 ft 532 kts 56°
2026-04-24 16:18 14.24226 -58.66411 31623 ft 532 kts 56°
2026-04-24 16:19 14.30461 -58.56889 31630 ft 532 kts 56°
2026-04-24 16:20 14.36656 -58.47418 31638 ft 532 kts 56°
2026-04-24 16:20 14.42858 -58.37924 31646 ft 532 kts 56°
2026-04-24 16:21 14.49061 -58.28418 31653 ft 533 kts 56°
2026-04-24 16:22 14.53216 -58.22043 31658 ft 533 kts 56°
2026-04-24 16:22 14.59403 -58.12543 31666 ft 533 kts 56°
2026-04-24 16:23 14.63516 -58.06221 31671 ft 533 kts 56°
2026-04-24 16:24 14.69726 -57.96667 31679 ft 533 kts 56°
2026-04-24 16:24 14.73828 -57.90348 31688 ft 532 kts 56°
2026-04-24 16:25 14.77968 -57.83967 31693 ft 532 kts 56°
2026-04-24 16:25 14.82101 -57.77591 31698 ft 532 kts 56°
2026-04-24 16:26 14.88252 -57.68092 31705 ft 532 kts 56°
2026-04-24 16:27 14.94445 -57.58518 31718 ft 532 kts 56°
2026-04-24 16:27 14.98539 -57.52182 31722 ft 532 kts 56°
2026-04-24 16:28 15.02674 -57.45774 31728 ft 532 kts 56°
2026-04-24 16:28 15.08741 -57.36173 31732 ft 532 kts 59°
2026-04-24 16:29 15.12484 -57.29549 31738 ft 532 kts 60°
2026-04-24 16:30 15.19864 -57.16303 31753 ft 532 kts 60°
2026-04-24 16:30 15.23573 -57.09698 31758 ft 532 kts 60°
2026-04-24 16:31 15.27301 -57.03069 31764 ft 532 kts 60°
2026-04-24 16:31 15.31031 -56.96427 31769 ft 532 kts 60°
2026-04-24 16:32 15.34739 -56.89815 31774 ft 532 kts 60°
2026-04-24 16:32 15.38457 -56.83180 31779 ft 532 kts 60°
2026-04-24 16:33 15.42183 -56.76522 31784 ft 532 kts 60°
2026-04-24 16:33 15.45881 -56.69911 31789 ft 532 kts 60°
2026-04-24 16:34 15.49610 -56.63237 31795 ft 532 kts 60°
2026-04-24 16:34 15.53299 -56.56628 31800 ft 532 kts 60°
2026-04-24 16:35 15.57008 -56.49979 31805 ft 532 kts 60°
2026-04-24 16:35 15.60728 -56.43303 31810 ft 532 kts 60°
2026-04-24 16:36 15.64422 -56.36670 31815 ft 532 kts 60°
2026-04-24 16:36 15.68127 -56.30010 31820 ft 533 kts 60°
2026-04-24 16:37 15.71815 -56.23373 31825 ft 533 kts 60°
2026-04-24 16:37 15.75518 -56.16704 31830 ft 533 kts 60°
2026-04-24 16:38 15.79217 -56.10036 31835 ft 533 kts 60°
2026-04-24 16:38 15.82900 -56.03391 31840 ft 533 kts 60°
2026-04-24 16:39 15.86599 -55.96712 31849 ft 532 kts 60°
2026-04-24 16:39 15.90291 -55.90038 31854 ft 532 kts 60°
2026-04-24 16:40 15.93971 -55.83379 31860 ft 532 kts 60°
2026-04-24 16:40 15.97662 -55.76696 31865 ft 533 kts 60°
2026-04-24 16:41 16.00732 -55.71132 31869 ft 533 kts 60°
2026-04-24 16:41 16.05021 -55.63351 31875 ft 533 kts 60°
2026-04-24 16:42 16.08088 -55.57783 31879 ft 533 kts 60°
2026-04-24 16:42 16.12370 -55.49999 31885 ft 533 kts 60°
2026-04-24 16:43 16.15452 -55.44393 31889 ft 533 kts 60°
2026-04-24 16:43 16.19113 -55.37728 31894 ft 533 kts 60°
2026-04-24 16:44 16.22793 -55.31020 31899 ft 533 kts 60°
2026-04-24 16:44 16.26464 -55.24324 31904 ft 533 kts 60°
2026-04-24 16:45 16.30121 -55.17647 31910 ft 533 kts 60°
2026-04-24 16:45 16.33787 -55.10946 31915 ft 533 kts 60°
2026-04-24 16:46 16.37454 -55.04238 31920 ft 533 kts 60°
2026-04-24 16:46 16.41100 -54.97562 31925 ft 533 kts 60°
2026-04-24 16:47 16.44768 -54.90837 31930 ft 533 kts 60°
2026-04-24 16:47 16.48429 -54.84122 31935 ft 533 kts 60°
2026-04-24 16:48 16.52088 -54.77402 31940 ft 533 kts 60°
2026-04-24 16:48 16.55740 -54.70688 31945 ft 533 kts 60°
2026-04-24 16:49 16.59379 -54.63994 31950 ft 533 kts 60°
2026-04-24 16:49 16.63030 -54.57268 31955 ft 533 kts 60°
2026-04-24 16:50 16.66678 -54.50543 31960 ft 533 kts 60°
2026-04-24 16:50 16.70329 -54.43806 31965 ft 533 kts 60°
2026-04-24 16:51 16.73958 -54.37102 31971 ft 533 kts 60°
2026-04-24 16:51 16.77607 -54.30355 31976 ft 533 kts 60°
2026-04-24 16:52 16.81230 -54.23650 31981 ft 533 kts 60°
2026-04-24 16:52 16.84872 -54.16902 31986 ft 533 kts 60°
2026-04-24 16:53 16.88513 -54.10150 31991 ft 533 kts 60°
2026-04-24 16:53 16.92146 -54.03407 31996 ft 533 kts 60°
2026-04-24 16:54 16.95764 -53.96684 32001 ft 533 kts 60°
2026-04-24 16:54 16.99392 -53.89936 32006 ft 533 kts 60°
2026-04-24 16:55 17.03020 -53.83181 32011 ft 533 kts 60°
2026-04-24 16:55 17.06659 -53.76400 32016 ft 533 kts 61°
2026-04-24 16:56 17.10259 -53.69683 32021 ft 533 kts 61°
2026-04-24 16:56 17.13894 -53.62893 32026 ft 533 kts 61°
2026-04-24 16:57 17.17513 -53.56129 32031 ft 533 kts 61°
2026-04-24 16:57 17.21114 -53.49390 32036 ft 533 kts 61°
2026-04-24 16:58 17.24728 -53.42620 32042 ft 533 kts 61°
2026-04-24 16:58 17.28347 -53.35835 32047 ft 533 kts 61°
2026-04-24 16:59 17.31940 -53.29090 32052 ft 533 kts 61°
2026-04-24 17:00 17.37335 -53.18951 32059 ft 533 kts 61°
2026-04-24 17:00 17.42745 -53.08767 32067 ft 533 kts 61°
2026-04-24 17:01 17.48150 -52.98579 32080 ft 533 kts 61°
2026-04-24 17:02 17.53526 -52.88428 32088 ft 533 kts 61°
2026-04-24 17:02 17.57128 -52.81619 32093 ft 533 kts 61°
2026-04-24 17:03 17.62496 -52.71456 32100 ft 533 kts 61°
2026-04-24 17:04 17.66084 -52.64655 32113 ft 533 kts 61°
2026-04-24 17:04 17.71472 -52.54427 32121 ft 533 kts 61°
2026-04-24 17:05 17.75031 -52.47663 32126 ft 533 kts 61°
2026-04-24 17:06 17.80412 -52.37423 32134 ft 533 kts 61°
2026-04-24 17:06 17.85758 -52.27233 32142 ft 533 kts 61°
2026-04-24 17:07 17.89338 -52.20400 32147 ft 533 kts 61°
2026-04-24 17:08 17.96466 -52.06770 32157 ft 533 kts 61°
2026-04-24 17:08 18.00042 -51.99952 32162 ft 533 kts 60°
2026-04-24 17:09 18.08107 -51.86947 32172 ft 532 kts 56°
2026-04-24 17:10 18.16266 -51.73926 32183 ft 532 kts 57°
2026-04-24 17:12 18.32439 -51.47861 32203 ft 533 kts 57°
2026-04-24 18:54 26.13516 -37.81294 33675 ft 532 kts 62°
2026-04-24 18:55 26.18789 -37.70454 33683 ft 532 kts 62°
2026-04-24 18:56 26.22316 -37.63189 33688 ft 532 kts 62°
2026-04-24 18:56 26.25820 -37.55958 33696 ft 532 kts 62°
2026-04-24 18:57 26.29336 -37.48691 33701 ft 532 kts 62°
2026-04-24 18:57 26.32857 -37.41401 33710 ft 532 kts 62°
2026-04-24 18:58 26.36344 -37.34169 33719 ft 532 kts 62°
2026-04-24 18:58 26.39850 -37.26887 33724 ft 532 kts 62°
2026-04-24 18:59 26.43355 -37.19595 33736 ft 532 kts 62°
2026-04-24 18:59 26.46829 -37.12354 33741 ft 532 kts 62°
2026-04-24 19:00 26.50324 -37.05059 33747 ft 532 kts 62°
2026-04-24 19:00 26.53820 -36.97748 33752 ft 532 kts 62°
2026-04-24 19:01 26.57306 -36.90447 33757 ft 532 kts 62°
2026-04-24 19:01 26.60768 -36.83183 33762 ft 532 kts 62°
2026-04-24 19:02 26.63667 -36.77092 33766 ft 532 kts 62°
2026-04-24 19:02 26.67717 -36.68566 33772 ft 532 kts 62°
2026-04-24 19:03 26.71195 -36.61232 33777 ft 532 kts 62°
2026-04-24 19:03 26.74642 -36.53952 33782 ft 532 kts 62°
2026-04-24 19:04 26.78112 -36.46610 33787 ft 532 kts 62°
2026-04-24 19:04 26.81561 -36.39301 33793 ft 532 kts 62°
2026-04-24 19:05 26.84458 -36.33151 33797 ft 532 kts 62°
2026-04-24 19:05 26.87887 -36.25860 33802 ft 532 kts 62°
2026-04-24 19:06 26.91334 -36.18518 33807 ft 532 kts 62°
2026-04-24 19:06 26.94782 -36.11160 33812 ft 532 kts 62°
2026-04-24 19:07 26.98225 -36.03802 33821 ft 532 kts 62°
2026-04-24 19:07 27.01434 -35.96314 33828 ft 532 kts 68°
2026-04-24 19:08 27.04181 -35.88631 33834 ft 532 kts 69°
2026-04-24 19:08 27.06903 -35.80909 33848 ft 532 kts 68°
2026-04-24 19:09 27.09636 -35.73231 33862 ft 532 kts 68°
2026-04-24 19:09 27.12399 -35.65522 33867 ft 532 kts 68°
2026-04-24 19:10 27.15163 -35.57808 33875 ft 532 kts 68°
2026-04-24 19:10 27.17904 -35.50136 33886 ft 532 kts 68°
2026-04-24 19:11 27.20657 -35.42409 33900 ft 532 kts 68°
2026-04-24 19:11 27.23391 -35.34719 33912 ft 532 kts 68°
2026-04-24 19:12 27.26138 -35.26979 33917 ft 532 kts 68°
2026-04-24 19:12 27.28880 -35.19236 33922 ft 532 kts 68°
2026-04-24 19:13 27.31153 -35.12805 33927 ft 532 kts 68°
2026-04-24 19:13 27.34329 -35.03802 33947 ft 532 kts 68°
2026-04-24 19:14 27.37055 -34.96056 33955 ft 532 kts 68°
2026-04-24 19:14 27.39764 -34.88343 33960 ft 532 kts 69°
2026-04-24 19:15 27.42485 -34.80580 33965 ft 532 kts 69°
2026-04-24 19:15 27.45197 -34.72825 33974 ft 532 kts 69°
2026-04-24 19:16 27.49249 -34.61212 33982 ft 532 kts 69°
2026-04-24 19:16 27.51953 -34.53439 33987 ft 532 kts 69°
2026-04-24 19:17 27.54638 -34.45709 33992 ft 532 kts 69°
2026-04-24 19:17 27.57335 -34.37926 34008 ft 532 kts 69°
2026-04-24 19:18 27.60026 -34.30142 34026 ft 532 kts 69°
2026-04-24 19:18 27.62699 -34.22395 34033 ft 532 kts 69°
2026-04-24 19:19 27.65366 -34.14650 34046 ft 532 kts 69°
2026-04-24 19:19 27.68049 -34.06844 34056 ft 532 kts 69°
2026-04-24 19:20 27.70706 -33.99095 34062 ft 532 kts 69°
2026-04-24 19:20 27.73381 -33.91277 34070 ft 532 kts 69°
2026-04-24 19:21 27.76028 -33.83523 34076 ft 532 kts 69°
2026-04-24 19:21 27.78692 -33.75705 34081 ft 532 kts 69°
2026-04-24 19:22 27.81352 -33.67879 34086 ft 532 kts 69°
2026-04-24 19:22 27.83989 -33.60107 34091 ft 532 kts 69°
2026-04-24 19:23 27.86636 -33.52287 34096 ft 532 kts 69°
2026-04-24 19:23 27.89261 -33.44517 34101 ft 532 kts 69°
2026-04-24 19:24 27.91907 -33.36668 34110 ft 532 kts 69°
2026-04-24 19:24 27.94527 -33.28876 34124 ft 532 kts 69°
2026-04-24 19:25 27.97157 -33.21041 34130 ft 532 kts 69°
2026-04-24 19:25 27.99783 -33.13200 34146 ft 532 kts 69°
2026-04-24 19:26 28.02390 -33.05397 34157 ft 532 kts 69°
2026-04-24 19:26 28.05007 -32.97549 34168 ft 532 kts 69°
2026-04-24 19:27 28.07602 -32.89749 34177 ft 532 kts 69°
2026-04-24 19:27 28.10205 -32.81907 34185 ft 532 kts 69°
2026-04-24 19:28 28.12810 -32.74044 34195 ft 532 kts 69°
2026-04-24 19:28 28.15394 -32.66225 34219 ft 531 kts 70°
2026-04-24 19:29 28.19283 -32.54424 34227 ft 532 kts 70°
2026-04-24 19:30 28.21854 -32.46605 34235 ft 532 kts 70°
2026-04-24 19:30 28.24441 -32.38715 34241 ft 532 kts 70°
2026-04-24 19:31 28.27005 -32.30881 34246 ft 532 kts 70°
2026-04-24 19:31 28.29566 -32.23038 34251 ft 532 kts 70°
2026-04-24 19:32 28.32133 -32.15158 34257 ft 532 kts 70°
2026-04-24 19:32 28.34699 -32.07262 34262 ft 532 kts 70°
2026-04-24 19:33 28.37241 -31.99423 34269 ft 532 kts 70°
2026-04-24 19:33 28.39802 -31.91510 34274 ft 532 kts 70°
2026-04-24 19:34 28.42335 -31.83662 34285 ft 532 kts 70°
2026-04-24 19:34 28.44881 -31.75758 34293 ft 532 kts 70°
2026-04-24 19:35 28.47425 -31.67842 34301 ft 532 kts 70°
2026-04-24 19:35 28.49950 -31.59968 34307 ft 532 kts 70°
2026-04-24 19:36 28.52486 -31.52042 34312 ft 532 kts 70°
2026-04-24 19:36 28.54993 -31.44187 34317 ft 532 kts 70°
2026-04-24 19:37 28.57521 -31.36248 34330 ft 532 kts 70°
2026-04-24 19:37 28.60044 -31.28309 34339 ft 532 kts 70°
2026-04-24 19:38 28.62536 -31.20446 34344 ft 532 kts 70°
2026-04-24 19:38 28.65044 -31.12517 34353 ft 532 kts 70°
2026-04-24 19:39 28.67538 -31.04611 34358 ft 532 kts 70°
2026-04-24 19:39 28.70033 -30.96687 34379 ft 532 kts 70°
2026-04-24 19:40 28.72524 -30.88754 34384 ft 532 kts 70°
2026-04-24 19:40 28.75015 -30.80804 34394 ft 532 kts 70°
2026-04-24 19:41 28.77490 -30.72886 34399 ft 532 kts 70°
2026-04-24 19:41 28.79968 -30.64942 34404 ft 532 kts 70°
2026-04-24 19:42 28.82441 -30.56992 34410 ft 532 kts 70°
2026-04-24 19:42 28.84916 -30.49020 34421 ft 532 kts 71°
2026-04-24 19:43 28.87367 -30.41104 34438 ft 532 kts 71°
2026-04-24 19:43 28.89826 -30.33143 34444 ft 532 kts 71°
2026-04-24 19:44 28.92281 -30.25177 34459 ft 531 kts 71°
2026-04-24 19:44 28.94732 -30.17203 34463 ft 532 kts 71°
2026-04-24 19:45 28.97166 -30.09268 34468 ft 532 kts 71°
2026-04-24 19:45 28.99608 -30.01289 34474 ft 532 kts 71°
2026-04-24 19:46 29.02285 -29.93442 34486 ft 531 kts 68°
2026-04-24 19:46 29.05146 -29.85645 34495 ft 531 kts 67°
2026-04-24 19:47 29.08009 -29.77847 34501 ft 532 kts 68°
2026-04-24 19:47 29.10838 -29.70040 34514 ft 531 kts 68°
2026-04-24 19:48 29.13638 -29.62247 34519 ft 532 kts 68°
2026-04-24 19:48 29.17856 -29.50470 34527 ft 532 kts 68°
2026-04-24 19:49 29.23440 -29.34836 34555 ft 532 kts 68°
2026-04-24 19:50 29.29013 -29.19166 34578 ft 531 kts 68°
2026-04-24 19:51 29.33175 -29.07419 34585 ft 532 kts 68°
2026-04-24 19:52 29.37350 -28.95595 34603 ft 531 kts 68°
2026-04-24 19:52 29.40107 -28.87767 34608 ft 532 kts 68°
2026-04-24 19:53 29.42862 -28.79926 34615 ft 532 kts 68°
2026-04-24 19:54 29.46546 -28.69415 34633 ft 531 kts 68°
2026-04-24 19:54 29.49298 -28.61540 34639 ft 532 kts 68°
2026-04-24 19:55 29.51589 -28.54974 34643 ft 532 kts 68°
2026-04-24 19:55 29.54789 -28.45779 34649 ft 532 kts 68°
2026-04-24 19:56 29.57527 -28.37892 34659 ft 532 kts 68°
2026-04-24 19:56 29.60252 -28.30029 34665 ft 532 kts 68°
2026-04-24 19:57 29.62987 -28.22115 34670 ft 532 kts 68°
2026-04-24 19:57 29.65705 -28.14236 34676 ft 532 kts 68°
2026-04-24 19:58 29.68432 -28.06308 34681 ft 532 kts 69°
2026-04-24 19:58 29.71150 -27.98393 34686 ft 532 kts 69°
2026-04-24 19:59 29.73851 -27.90509 34691 ft 532 kts 69°
2026-04-24 19:59 29.76567 -27.82559 34696 ft 532 kts 69°
2026-04-24 20:00 29.79256 -27.74674 34701 ft 532 kts 69°
2026-04-24 20:00 29.81962 -27.66720 34706 ft 532 kts 69°
2026-04-24 20:01 29.84657 -27.58780 34713 ft 532 kts 69°
2026-04-24 20:01 29.87336 -27.50870 34726 ft 532 kts 69°
2026-04-24 20:02 29.90025 -27.42910 34731 ft 532 kts 69°
2026-04-24 20:02 29.92690 -27.35005 34736 ft 532 kts 69°
2026-04-24 20:03 29.95368 -27.27041 34744 ft 532 kts 69°
2026-04-24 20:03 29.98042 -27.19072 34750 ft 532 kts 69°
2026-04-24 20:04 30.00694 -27.11149 34756 ft 532 kts 69°
2026-04-24 20:04 30.03358 -27.03173 34761 ft 532 kts 69°
2026-04-24 20:05 30.06014 -26.95199 34766 ft 532 kts 69°
2026-04-24 20:05 30.08651 -26.87265 34771 ft 532 kts 69°
2026-04-24 20:06 30.11301 -26.79277 34778 ft 532 kts 69°
2026-04-24 20:06 30.13945 -26.71283 34784 ft 532 kts 69°
2026-04-24 20:07 30.16140 -26.64634 34788 ft 532 kts 69°
2026-04-24 20:07 30.19202 -26.55335 34794 ft 532 kts 69°
2026-04-24 20:08 30.21818 -26.47373 34799 ft 532 kts 69°
2026-04-24 20:08 30.24432 -26.39397 34891 ft 525 kts 69°
2026-04-24 20:09 30.26999 -26.31545 34999 ft 517 kts 69°
2026-04-24 20:09 30.29531 -26.23782 34994 ft 513 kts 69°
2026-04-24 20:10 30.32024 -26.16123 34997 ft 509 kts 69°
2026-04-24 20:10 30.34514 -26.08450 34997 ft 506 kts 69°
2026-04-24 20:11 30.36985 -26.00824 34998 ft 503 kts 69°
2026-04-24 20:11 30.39418 -25.93295 34998 ft 501 kts 70°
2026-04-24 20:12 30.41860 -25.85723 34999 ft 498 kts 70°
2026-04-24 20:12 30.44265 -25.78246 34999 ft 496 kts 70°
2026-04-24 20:13 30.46671 -25.70751 35000 ft 494 kts 70°
2026-04-24 20:13 30.49050 -25.63322 35000 ft 492 kts 70°
2026-04-24 20:14 30.51429 -25.55879 35000 ft 491 kts 70°
2026-04-24 20:14 30.53798 -25.48448 35000 ft 489 kts 70°
2026-04-24 20:15 30.56137 -25.41095 35000 ft 488 kts 70°
2026-04-24 20:15 30.58489 -25.33684 35000 ft 487 kts 70°
2026-04-24 20:16 30.60812 -25.26346 35001 ft 486 kts 70°
2026-04-24 20:16 30.63146 -25.18960 35001 ft 485 kts 70°
2026-04-24 20:17 30.65451 -25.11646 35001 ft 484 kts 70°
2026-04-24 20:17 30.68910 -25.00644 35001 ft 483 kts 70°
2026-04-24 20:18 30.71215 -24.93289 35001 ft 483 kts 70°
2026-04-24 20:18 30.73511 -24.85947 35001 ft 483 kts 70°
2026-04-24 20:19 30.75790 -24.78644 35001 ft 482 kts 70°
2026-04-24 20:19 30.78079 -24.71291 35001 ft 482 kts 70°
2026-04-24 20:20 30.80358 -24.63954 35001 ft 482 kts 70°
2026-04-24 20:20 30.82621 -24.56653 35004 ft 482 kts 70°
2026-04-24 20:21 30.84897 -24.49289 35001 ft 482 kts 70°
2026-04-24 20:21 30.87162 -24.41946 35001 ft 481 kts 70°
2026-04-24 20:22 30.89414 -24.34631 35001 ft 481 kts 70°
2026-04-24 20:22 30.91674 -24.27269 35001 ft 481 kts 70°
2026-04-24 20:23 30.93918 -24.19943 35001 ft 481 kts 70°
2026-04-24 20:23 30.96155 -24.12623 35001 ft 481 kts 70°
2026-04-24 20:24 30.98401 -24.05259 35001 ft 481 kts 70°
2026-04-24 20:24 31.00986 -23.98059 35003 ft 481 kts 62°
2026-04-24 20:25 31.04451 -23.91437 35006 ft 481 kts 58°
2026-04-24 20:25 31.08026 -23.84839 35000 ft 481 kts 58°
2026-04-24 20:26 31.11580 -23.78211 35002 ft 481 kts 58°
2026-04-24 20:26 31.15093 -23.71595 35001 ft 481 kts 58°
2026-04-24 20:27 31.18610 -23.64938 35001 ft 481 kts 58°
2026-04-24 20:27 31.22115 -23.58294 35002 ft 481 kts 58°
2026-04-24 20:28 31.25617 -23.51644 35001 ft 481 kts 58°
2026-04-24 20:28 31.29135 -23.44956 35001 ft 481 kts 58°
2026-04-24 20:29 31.32646 -23.38269 35001 ft 481 kts 58°
2026-04-24 20:29 31.36130 -23.31623 35002 ft 481 kts 58°
2026-04-24 20:30 31.39631 -23.24931 35002 ft 481 kts 58°
2026-04-24 20:30 31.43111 -23.18270 35001 ft 481 kts 58°
2026-04-24 20:31 31.46604 -23.11570 35001 ft 481 kts 58°
2026-04-24 20:31 31.50080 -23.04892 35001 ft 481 kts 59°
2026-04-24 20:32 31.53570 -22.98175 35002 ft 481 kts 59°
2026-04-24 20:32 31.57061 -22.91446 35001 ft 481 kts 59°
2026-04-24 20:33 31.60519 -22.84768 35001 ft 482 kts 59°
2026-04-24 20:33 31.64001 -22.78030 35001 ft 482 kts 59°
2026-04-24 20:34 31.67473 -22.71303 35001 ft 482 kts 59°
2026-04-24 20:34 31.70942 -22.64568 35002 ft 482 kts 59°
2026-04-24 20:35 31.74406 -22.57831 35001 ft 482 kts 59°
2026-04-24 20:35 31.77848 -22.51123 35001 ft 482 kts 59°
2026-04-24 20:36 31.81306 -22.44374 35001 ft 482 kts 59°
2026-04-24 20:36 31.84748 -22.37645 35001 ft 482 kts 59°
2026-04-24 20:37 31.88208 -22.30866 35001 ft 482 kts 59°
2026-04-24 20:37 31.91645 -22.24123 35001 ft 482 kts 59°
2026-04-24 20:38 31.95094 -22.17342 35001 ft 482 kts 59°
2026-04-24 20:38 31.98537 -22.10563 35001 ft 482 kts 59°
2026-04-24 20:39 32.01956 -22.03816 35001 ft 482 kts 59°
2026-04-24 20:39 32.05397 -21.97015 35001 ft 482 kts 59°
2026-04-24 20:40 32.08833 -21.90212 35001 ft 482 kts 59°
2026-04-24 20:40 32.12248 -21.83439 35001 ft 482 kts 59°
2026-04-24 20:41 32.15107 -21.77759 35001 ft 482 kts 59°
2026-04-24 20:41 32.18534 -21.70937 35001 ft 482 kts 59°
2026-04-24 20:42 32.21934 -21.64159 35001 ft 482 kts 59°
2026-04-24 20:42 32.25356 -21.57323 35001 ft 482 kts 59°
2026-04-24 20:43 32.28748 -21.50536 35001 ft 482 kts 59°
2026-04-24 20:43 32.32161 -21.43693 35001 ft 482 kts 59°
2026-04-24 20:44 32.35570 -21.36847 35001 ft 482 kts 59°
2026-04-24 20:44 32.38954 -21.30038 35001 ft 482 kts 59°
2026-04-24 20:45 32.42356 -21.23180 35001 ft 482 kts 59°
2026-04-24 20:45 32.45762 -21.16302 35001 ft 482 kts 59°
2026-04-24 20:46 32.49134 -21.09479 35001 ft 482 kts 60°
2026-04-24 20:46 32.52523 -21.02609 35001 ft 482 kts 60°
2026-04-24 20:47 32.55913 -20.95726 35001 ft 483 kts 60°
2026-04-24 20:47 32.59274 -20.88886 35001 ft 483 kts 60°
2026-04-24 20:48 32.62666 -20.81972 35001 ft 483 kts 60°
2026-04-24 20:48 32.66023 -20.75118 35001 ft 483 kts 60°
2026-04-24 20:49 32.69395 -20.68219 35001 ft 483 kts 60°
2026-04-24 20:49 32.72746 -20.61349 35001 ft 483 kts 60°
2026-04-24 20:50 32.76118 -20.54424 35001 ft 483 kts 60°
2026-04-24 20:50 32.79479 -20.47508 35002 ft 483 kts 60°
2026-04-24 20:51 32.82842 -20.40576 35001 ft 483 kts 60°
2026-04-24 20:51 32.86181 -20.33679 35001 ft 483 kts 60°
2026-04-24 20:52 32.89540 -20.26729 35001 ft 483 kts 60°
2026-04-24 20:52 32.92867 -20.19831 35001 ft 483 kts 60°
2026-04-24 20:53 32.96200 -20.12910 35001 ft 483 kts 60°
2026-04-24 20:53 32.99543 -20.05953 35001 ft 483 kts 60°
2026-04-24 20:54 33.02884 -19.98986 35001 ft 483 kts 60°
2026-04-24 20:54 33.06218 -19.92021 35001 ft 483 kts 60°
2026-04-24 20:55 33.09527 -19.85096 35001 ft 483 kts 60°
2026-04-24 20:55 33.12855 -19.78115 35001 ft 483 kts 60°
2026-04-24 20:56 33.16160 -19.71172 35002 ft 483 kts 60°
2026-04-24 20:56 33.19478 -19.64188 35001 ft 483 kts 60°
2026-04-24 20:57 33.22797 -19.57186 35001 ft 483 kts 60°
2026-04-24 20:57 33.26111 -19.50182 35001 ft 483 kts 60°
2026-04-24 20:58 33.29401 -19.43216 35001 ft 483 kts 60°
2026-04-24 20:58 33.32709 -19.36197 35001 ft 483 kts 60°
2026-04-24 20:59 33.36010 -19.29180 35001 ft 483 kts 60°
2026-04-24 20:59 33.39291 -19.22192 35001 ft 483 kts 60°
2026-04-24 21:00 33.42581 -19.15172 35001 ft 483 kts 61°
2026-04-24 21:00 33.45854 -19.08173 35001 ft 483 kts 61°
2026-04-24 21:01 33.49139 -19.01137 35002 ft 483 kts 61°
2026-04-24 21:01 33.52423 -18.94087 35001 ft 483 kts 61°
2026-04-24 21:02 33.55686 -18.87068 35001 ft 484 kts 61°
2026-04-24 21:02 33.58965 -18.80001 35001 ft 484 kts 61°
2026-04-24 21:03 33.62238 -18.72934 35001 ft 484 kts 61°
2026-04-24 21:03 33.65492 -18.65892 35001 ft 484 kts 61°
2026-04-24 21:04 33.68750 -18.58829 35001 ft 484 kts 61°
2026-04-24 21:04 33.71997 -18.51776 35001 ft 484 kts 61°
2026-04-24 21:05 33.75256 -18.44681 35001 ft 484 kts 61°
2026-04-24 21:05 33.78508 -18.37587 35001 ft 484 kts 61°
2026-04-24 21:06 33.81739 -18.30526 35001 ft 484 kts 61°
2026-04-24 21:06 33.84985 -18.23418 35001 ft 484 kts 61°
2026-04-24 21:07 33.88205 -18.16351 35001 ft 484 kts 61°
2026-04-24 21:07 33.91441 -18.09235 35001 ft 484 kts 61°
2026-04-24 21:08 33.94450 -18.01977 35004 ft 483 kts 69°
2026-04-24 21:08 33.96241 -17.94218 35008 ft 483 kts 79°
2026-04-24 21:09 33.97562 -17.86270 35003 ft 483 kts 78°
2026-04-24 21:09 33.99136 -17.78389 35001 ft 483 kts 75°
2026-04-24 21:10 34.00896 -17.70615 35002 ft 483 kts 74°
2026-04-24 21:10 34.02720 -17.62802 35001 ft 483 kts 74°
2026-04-24 21:11 34.04532 -17.54992 35001 ft 484 kts 75°
2026-04-24 21:11 34.06320 -17.47208 35002 ft 484 kts 75°
2026-04-24 21:12 34.07809 -17.40685 35001 ft 484 kts 75°
2026-04-24 21:12 34.09894 -17.31519 35001 ft 484 kts 75°
2026-04-24 21:13 34.11660 -17.23733 35001 ft 484 kts 75°
2026-04-24 21:13 34.13436 -17.15879 35001 ft 484 kts 75°
2026-04-24 21:14 34.15197 -17.08064 35001 ft 484 kts 75°
2026-04-24 21:14 34.16964 -17.00201 35001 ft 484 kts 75°
2026-04-24 21:15 34.18724 -16.92338 35001 ft 484 kts 75°
2026-04-24 21:15 34.20475 -16.84494 35037 ft 489 kts 75°
2026-04-24 21:16 34.22256 -16.76488 35078 ft 494 kts 75°
2026-04-24 21:16 34.24035 -16.68461 35121 ft 499 kts 75°
2026-04-24 21:17 34.25832 -16.60330 35156 ft 503 kts 75°
2026-04-24 21:17 34.27339 -16.53487 35182 ft 506 kts 75°
2026-04-24 21:18 34.29450 -16.43873 35218 ft 510 kts 75°
2026-04-24 21:18 34.31273 -16.35535 35256 ft 514 kts 75°
2026-04-24 21:19 34.33091 -16.27190 35287 ft 516 kts 75°
2026-04-24 21:19 34.34924 -16.18748 35310 ft 519 kts 75°
2026-04-24 21:20 34.37678 -16.06005 35365 ft 522 kts 75°
2026-04-24 21:21 34.39502 -15.97528 35376 ft 524 kts 76°
2026-04-24 21:21 34.41336 -15.88976 35412 ft 525 kts 76°
2026-04-24 21:22 34.43156 -15.80454 35426 ft 526 kts 76°
2026-04-24 21:22 34.44989 -15.71836 35443 ft 527 kts 76°
2026-04-24 21:23 34.46818 -15.63211 35454 ft 528 kts 76°
2026-04-24 21:23 34.48630 -15.54630 35469 ft 528 kts 76°
2026-04-24 21:24 34.50448 -15.45986 35485 ft 529 kts 76°
2026-04-24 21:24 34.52262 -15.37335 35505 ft 529 kts 76°
2026-04-24 21:25 34.54024 -15.28704 35515 ft 529 kts 77°
2026-04-24 21:25 34.55673 -15.19962 35545 ft 529 kts 77°
2026-04-24 21:26 34.57280 -15.11300 35604 ft 529 kts 77°
2026-04-24 21:26 34.58911 -15.02575 35615 ft 529 kts 77°
2026-04-24 21:27 34.60537 -14.93907 35629 ft 529 kts 77°
2026-04-24 21:27 34.62169 -14.85182 35634 ft 530 kts 77°
2026-04-24 21:28 34.63791 -14.76468 35640 ft 530 kts 77°
2026-04-24 21:28 34.65412 -14.67711 35665 ft 530 kts 77°
2026-04-24 21:29 34.67016 -14.59014 35689 ft 530 kts 77°
2026-04-24 21:29 34.68362 -14.51689 35701 ft 530 kts 77°
2026-04-24 21:30 34.69952 -14.42999 35716 ft 530 kts 77°
2026-04-24 21:30 34.71546 -14.34251 35725 ft 530 kts 78°
2026-04-24 21:31 34.73136 -14.25483 35746 ft 530 kts 78°
2026-04-24 21:31 34.74711 -14.16768 35752 ft 530 kts 78°
2026-04-24 21:32 34.76291 -14.07978 35757 ft 530 kts 78°
2026-04-24 21:32 34.77862 -13.99204 35770 ft 530 kts 78°
2026-04-24 21:33 34.79417 -13.90482 35778 ft 530 kts 78°
2026-04-24 21:33 34.80975 -13.81705 35786 ft 530 kts 78°
2026-04-24 21:34 34.82530 -13.72907 35809 ft 530 kts 78°
2026-04-24 21:34 34.84067 -13.64172 35818 ft 530 kts 78°
2026-04-24 21:35 34.85606 -13.55382 35833 ft 530 kts 78°
2026-04-24 21:35 34.87137 -13.46599 35850 ft 530 kts 78°
2026-04-24 21:36 34.88662 -13.37817 35873 ft 530 kts 78°
2026-04-24 21:36 34.90171 -13.29084 35902 ft 529 kts 78°
2026-04-24 21:37 34.91683 -13.20294 35910 ft 529 kts 78°
2026-04-24 21:37 34.93188 -13.11502 35989 ft 528 kts 78°
2026-04-24 21:38 34.94684 -13.02725 35995 ft 529 kts 78°
2026-04-24 21:38 34.96167 -12.93983 36001 ft 529 kts 78°
2026-04-24 21:39 34.97656 -12.85169 36018 ft 529 kts 78°
2026-04-24 21:39 34.99127 -12.76421 36028 ft 529 kts 78°
2026-04-24 21:40 35.01184 -12.67795 36057 ft 529 kts 68°
2026-04-24 21:40 35.04207 -12.59672 36072 ft 529 kts 65°
2026-04-24 21:41 35.07328 -12.51521 36079 ft 529 kts 65°
2026-04-24 21:41 35.10394 -12.43384 36085 ft 529 kts 65°
2026-04-24 21:42 35.13445 -12.35177 36097 ft 529 kts 66°
2026-04-24 21:42 35.16465 -12.27010 36111 ft 529 kts 66°
2026-04-24 21:43 35.19495 -12.18803 36128 ft 529 kts 66°
2026-04-24 21:43 35.22510 -12.10621 36134 ft 529 kts 66°
2026-04-24 21:44 35.25532 -12.02401 36146 ft 529 kts 66°
2026-04-24 21:44 35.28557 -11.94153 36165 ft 529 kts 66°
2026-04-24 21:45 35.31549 -11.85970 36170 ft 529 kts 66°
2026-04-24 21:45 35.34562 -11.77711 36180 ft 529 kts 66°
2026-04-24 21:46 35.37562 -11.69464 36189 ft 529 kts 66°
2026-04-24 21:46 35.40541 -11.61256 36195 ft 530 kts 66°
2026-04-24 21:47 35.43531 -11.52995 36200 ft 530 kts 66°
2026-04-24 21:47 35.46518 -11.44720 36205 ft 530 kts 66°
2026-04-24 21:48 35.49482 -11.36489 36211 ft 530 kts 66°
2026-04-24 21:48 35.52453 -11.28214 36229 ft 530 kts 66°
2026-04-24 21:49 35.55425 -11.19916 36240 ft 530 kts 66°
2026-04-24 21:49 35.58391 -11.11611 36249 ft 530 kts 66°
2026-04-24 21:50 35.61335 -11.03347 36263 ft 529 kts 66°
2026-04-24 21:50 35.64270 -10.95087 36275 ft 529 kts 66°
2026-04-24 21:51 35.67216 -10.86773 36304 ft 529 kts 66°
2026-04-24 21:51 35.70148 -10.78475 36319 ft 529 kts 66°
2026-04-24 21:52 35.73064 -10.70202 36324 ft 529 kts 66°
2026-04-24 21:52 35.75998 -10.61855 36337 ft 529 kts 66°
2026-04-24 21:53 35.78903 -10.53569 36347 ft 529 kts 67°
2026-04-24 21:53 35.81820 -10.45224 36352 ft 529 kts 67°
2026-04-24 21:54 35.84714 -10.36924 36358 ft 529 kts 67°
2026-04-24 21:54 35.87622 -10.28562 36376 ft 529 kts 67°
2026-04-24 21:55 35.90521 -10.20200 36381 ft 529 kts 67°
2026-04-24 21:55 35.93394 -10.11892 36386 ft 529 kts 67°
2026-04-24 21:56 35.96288 -10.03506 36392 ft 529 kts 66°
2026-04-24 21:56 35.99511 -9.95394 36404 ft 529 kts 62°
2026-04-24 21:57 36.02953 -9.87329 36409 ft 529 kts 62°
2026-04-24 21:57 36.06385 -9.79264 36414 ft 529 kts 62°
2026-04-24 21:58 36.09788 -9.71166 36425 ft 529 kts 63°
2026-04-24 21:58 36.13152 -9.63104 36437 ft 529 kts 63°
2026-04-24 21:59 36.16528 -9.54988 36442 ft 529 kts 63°
2026-04-24 21:59 36.19883 -9.46909 36447 ft 530 kts 63°
2026-04-24 22:00 36.23261 -9.38758 36461 ft 529 kts 63°
2026-04-24 22:00 36.26600 -9.30682 36466 ft 530 kts 63°
2026-04-24 22:01 36.29955 -9.22547 36471 ft 530 kts 63°
2026-04-24 22:01 36.33309 -9.14394 36476 ft 530 kts 63°
2026-04-24 22:02 36.36639 -9.06278 36482 ft 530 kts 63°
2026-04-24 22:02 36.39988 -8.98094 36491 ft 530 kts 63°
2026-04-24 22:03 36.43303 -8.89974 36496 ft 530 kts 63°
2026-04-24 22:03 36.46639 -8.81783 36501 ft 530 kts 63°
2026-04-24 22:04 36.49967 -8.73589 36506 ft 530 kts 63°
2026-04-24 22:04 36.53259 -8.65463 36764 ft 524 kts 63°
2026-04-24 22:04 36.54886 -8.61440 37025 ft 516 kts 63°
2026-04-24 22:05 36.56496 -8.57455 36995 ft 513 kts 63°
2026-04-24 22:05 36.59672 -8.49575 36995 ft 510 kts 63°
2026-04-24 22:06 36.62841 -8.41697 36997 ft 507 kts 63°
2026-04-24 22:06 36.65997 -8.33829 36999 ft 505 kts 63°
2026-04-24 22:07 36.69104 -8.26065 37000 ft 503 kts 64°
2026-04-24 22:07 36.72219 -8.18261 37000 ft 501 kts 64°
2026-04-24 22:08 36.75317 -8.10482 37000 ft 499 kts 64°
2026-04-24 22:08 36.78379 -8.02773 37000 ft 498 kts 64°
2026-04-24 22:09 36.81446 -7.95035 37000 ft 496 kts 64°
2026-04-24 22:09 36.84505 -7.87299 37000 ft 495 kts 64°
2026-04-24 22:10 36.87544 -7.79592 37000 ft 494 kts 64°
2026-04-24 22:10 36.90557 -7.71932 37000 ft 493 kts 64°
2026-04-24 22:11 36.93580 -7.64229 37000 ft 492 kts 64°
2026-04-24 22:11 36.96589 -7.56543 37001 ft 491 kts 64°
2026-04-24 22:12 36.99565 -7.48924 37000 ft 490 kts 64°
2026-04-24 22:12 37.02580 -7.41265 37001 ft 489 kts 61°
2026-04-24 22:13 37.06340 -7.34166 36995 ft 489 kts 50°
2026-04-24 22:13 37.10775 -7.27712 37002 ft 488 kts 49°
2026-04-24 22:14 37.15125 -7.21255 36997 ft 486 kts 53°
2026-04-24 22:14 37.16873 -7.17637 36989 ft 485 kts 69°
2026-04-24 22:14 37.17786 -7.13600 37017 ft 480 kts 78°
2026-04-24 22:15 37.19187 -7.05401 37006 ft 480 kts 78°
2026-04-24 22:15 37.20664 -6.97265 37003 ft 481 kts 77°
2026-04-24 22:16 37.22208 -6.89091 37001 ft 481 kts 77°
2026-04-24 22:16 37.23493 -6.82298 37002 ft 481 kts 77°
2026-04-24 22:17 37.25027 -6.74110 37002 ft 481 kts 77°
2026-04-24 22:17 37.26544 -6.65915 37001 ft 481 kts 77°
2026-04-24 22:18 37.28047 -6.57772 36999 ft 480 kts 77°
2026-04-24 22:18 37.29553 -6.49578 37000 ft 479 kts 77°
2026-04-24 22:19 37.31036 -6.41474 37001 ft 479 kts 77°
2026-04-24 22:19 37.32524 -6.33310 37002 ft 478 kts 77°
2026-04-24 22:20 37.34009 -6.25138 37002 ft 478 kts 77°
2026-04-24 22:20 37.36410 -6.17464 37012 ft 474 kts 53°
2026-04-24 22:20 37.38659 -6.14521 36996 ft 471 kts 38°
2026-04-24 22:21 37.41040 -6.11739 36974 ft 466 kts 54°
2026-04-24 22:21 37.42515 -6.08133 37012 ft 463 kts 76°
2026-04-24 22:21 37.42932 -6.04162 37010 ft 451 kts 89°
2026-04-24 22:21 37.42836 -6.00308 36962 ft 432 kts 102°
2026-04-24 22:22 37.42136 -5.96738 37003 ft 411 kts 102°
2026-04-24 22:22 37.41816 -5.93237 36647 ft 400 kts 86°
2026-04-24 22:22 37.42273 -5.89717 34481 ft 424 kts 73°
2026-04-24 22:22 37.43471 -5.86145 31349 ft 475 kts 60°
2026-04-24 22:23 37.45437 -5.82651 29502 ft 494 kts 48°
2026-04-24 22:23 37.47827 -5.79758 29876 ft 449 kts 38°
2026-04-24 22:23 37.50249 -5.77650 30924 ft 397 kts 30°
2026-04-24 22:23 37.52603 -5.76138 30922 ft 376 kts 23°
2026-04-24 22:24 37.55085 -5.74969 29456 ft 391 kts 17°
2026-04-24 22:24 37.57831 -5.74060 27305 ft 424 kts 11°
2026-04-24 22:24 37.60806 -5.73421 25899 ft 436 kts
2026-04-24 22:24 37.63753 -5.73073 25788 ft 409 kts
2026-04-24 22:25 37.66480 -5.72972 26094 ft 375 kts 359°
2026-04-24 22:25 37.69026 -5.73052 25780 ft 361 kts 356°
2026-04-24 22:25 37.71528 -5.73280 24617 ft 371 kts 354°
2026-04-24 22:25 37.74172 -5.73657 23097 ft 391 kts 352°
2026-04-24 22:26 37.76887 -5.74160 22060 ft 395 kts 350°
2026-04-24 22:26 37.79541 -5.74748 21756 ft 376 kts 349°
2026-04-24 22:26 37.82027 -5.75385 21662 ft 354 kts 347°
2026-04-24 22:26 37.84404 -5.76067 21167 ft 345 kts 346°
2026-04-24 22:27 37.86727 -5.76796 20175 ft 352 kts 345°
2026-04-24 22:27 37.89147 -5.77616 19041 ft 363 kts 344°
2026-04-24 22:27 37.91552 -5.78484 18275 ft 361 kts 343°
2026-04-24 22:27 37.93916 -5.79380 17904 ft 347 kts 342°
2026-04-24 22:28 37.96176 -5.80270 17562 ft 333 kts 342°
2026-04-24 22:28 37.98372 -5.81159 16921 ft 330 kts 341°
2026-04-24 22:28 38.00578 -5.82072 16015 ft 335 kts 341°
2026-04-24 22:28 38.02783 -5.83003 15167 ft 339 kts 341°
2026-04-24 22:29 38.07167 -5.84899 14150 ft 322 kts 340°
2026-04-24 22:29 38.09264 -5.85823 13634 ft 316 kts 340°
2026-04-24 22:29 38.11339 -5.86749 12921 ft 316 kts 340°
2026-04-24 22:30 38.13398 -5.87679 12155 ft 319 kts 340°
2026-04-24 22:30 38.15485 -5.88629 11500 ft 316 kts 340°
2026-04-24 22:30 38.17542 -5.89574 10989 ft 310 kts 339°
2026-04-24 22:30 38.19550 -5.90502 10480 ft 303 kts 339°
2026-04-24 22:31 38.21507 -5.91411 9866 ft 302 kts 339°
2026-04-24 22:31 38.23478 -5.92332 9177 ft 302 kts 339°
2026-04-24 22:31 38.25460 -5.93261 8535 ft 301 kts 339°
2026-04-24 22:31 38.27414 -5.94179 7992 ft 296 kts 339°
2026-04-24 22:32 38.29313 -5.95072 7477 ft 291 kts 339°
2026-04-24 22:32 38.31211 -5.95967 6897 ft 289 kts 339°
2026-04-24 22:32 38.33103 -5.96861 6266 ft 289 kts 339°
2026-04-24 22:32 38.34984 -5.97751 5662 ft 287 kts 339°
2026-04-24 22:33 38.36833 -5.98629 5123 ft 284 kts 339°
2026-04-24 22:33 38.38674 -5.99506 4599 ft 280 kts 339°
2026-04-24 22:33 38.40494 -6.00377 4043 ft 278 kts 339°
2026-04-24 22:33 38.42301 -6.01244 3457 ft 277 kts 339°
2026-04-24 22:34 38.44101 -6.02112 2890 ft 275 kts 339°
2026-04-24 22:34 38.45884 -6.02977 2359 ft 272 kts 338°
2026-04-24 22:34 38.47627 -6.03831 1842 ft 269 kts 339°
2026-04-24 22:35 38.52008 -6.05942 2101 ft 298 kts 339°
2026-04-24 22:35 38.53967 -6.06887 2417 ft 309 kts 339°
2026-04-24 22:35 38.56060 -6.07900 2687 ft 333 kts 339°
2026-04-24 22:36 38.58265 -6.08969 2960 ft 349 kts 339°
2026-04-24 22:36 38.60544 -6.10075 3204 ft 350 kts 339°
2026-04-24 22:36 38.62823 -6.11183 3457 ft 349 kts 339°
2026-04-24 22:36 38.65072 -6.12276 3700 ft 349 kts 339°
2026-04-24 22:37 38.67347 -6.13383 3949 ft 349 kts 339°
2026-04-24 22:37 38.69624 -6.14490 4201 ft 350 kts 339°
2026-04-24 22:37 38.71912 -6.15604 4455 ft 352 kts 339°
2026-04-24 22:37 38.74217 -6.16727 4710 ft 355 kts 339°
2026-04-24 22:38 38.76540 -6.17859 4964 ft 358 kts 339°
2026-04-24 22:38 38.78846 -6.18985 5214 ft 360 kts 339°
2026-04-24 22:38 38.81199 -6.20134 5467 ft 362 kts 339°
2026-04-24 22:38 38.83566 -6.21290 5719 ft 364 kts 339°
2026-04-24 22:39 38.85942 -6.22450 5972 ft 365 kts 339°
2026-04-24 22:39 38.88295 -6.23600 6221 ft 367 kts 339°
2026-04-24 22:39 38.90687 -6.24770 6472 ft 368 kts 339°
2026-04-24 22:39 38.93097 -6.25950 6724 ft 370 kts 339°
2026-04-24 22:40 38.95505 -6.27129 6975 ft 371 kts 339°
2026-04-24 22:40 38.97931 -6.28318 7227 ft 372 kts 339°
2026-04-24 22:40 39.00328 -6.29494 7475 ft 374 kts 339°
2026-04-24 22:40 39.02764 -6.30690 7727 ft 375 kts 339°
2026-04-24 22:41 39.05215 -6.31893 7979 ft 377 kts 339°
2026-04-24 22:41 39.07676 -6.33102 8232 ft 379 kts 339°
2026-04-24 22:41 39.10154 -6.34320 8484 ft 381 kts 339°
2026-04-24 22:41 39.12639 -6.35543 8738 ft 384 kts 339°
2026-04-24 22:42 39.15144 -6.36777 8990 ft 386 kts 339°
2026-04-24 22:42 39.17631 -6.38001 9240 ft 388 kts 339°
2026-04-24 22:42 39.20163 -6.39250 9492 ft 389 kts 339°
2026-04-24 22:42 39.22703 -6.40503 9744 ft 391 kts 339°
2026-04-24 22:43 39.25253 -6.41761 9996 ft 393 kts 339°
2026-04-24 22:43 39.27818 -6.43029 10247 ft 394 kts 339°
2026-04-24 22:43 39.30362 -6.44286 10497 ft 396 kts 339°
2026-04-24 22:43 39.32953 -6.45568 10750 ft 398 kts 339°
2026-04-24 22:44 39.35553 -6.46854 11002 ft 400 kts 339°
2026-04-24 22:44 39.38154 -6.48143 11253 ft 402 kts 339°
2026-04-24 22:44 39.40776 -6.49442 11505 ft 403 kts 339°
2026-04-24 22:44 39.43372 -6.50729 11754 ft 405 kts 339°
2026-04-24 22:45 39.46021 -6.52044 12007 ft 407 kts 339°
2026-04-24 22:45 39.48670 -6.53359 12259 ft 408 kts 339°
2026-04-24 22:45 39.51338 -6.54685 12511 ft 410 kts 339°
2026-04-24 22:45 39.53985 -6.56001 12761 ft 412 kts 339°
2026-04-24 22:46 39.56676 -6.57341 13014 ft 414 kts 339°
2026-04-24 22:46 39.59382 -6.58688 13267 ft 416 kts 339°
2026-04-24 22:46 39.62099 -6.60042 13521 ft 419 kts 339°
2026-04-24 22:46 39.64802 -6.61390 13771 ft 421 kts 339°
2026-04-24 22:47 39.67544 -6.62759 14023 ft 423 kts 339°
2026-04-24 22:47 39.70302 -6.64136 14276 ft 425 kts 339°
2026-04-24 22:47 39.73073 -6.65521 14529 ft 427 kts 339°
2026-04-24 22:47 39.75823 -6.66896 14778 ft 429 kts 339°
2026-04-24 22:48 39.78618 -6.68294 15031 ft 431 kts 339°
2026-04-24 22:48 39.81428 -6.69702 15283 ft 433 kts 339°
2026-04-24 22:48 39.84247 -6.71115 15535 ft 435 kts 339°
2026-04-24 22:48 39.87087 -6.72540 15788 ft 437 kts 339°
2026-04-24 22:49 39.89938 -6.73970 16041 ft 439 kts 339°
2026-04-24 22:49 39.92761 -6.75389 16291 ft 442 kts 338°
2026-04-24 22:49 39.95638 -6.76835 16541 ft 444 kts 339°
2026-04-24 22:49 39.98537 -6.78293 16794 ft 446 kts 339°
2026-04-24 22:50 40.01451 -6.79760 17047 ft 448 kts 338°
2026-04-24 22:50 40.04368 -6.81230 17299 ft 450 kts 338°
2026-04-24 22:50 40.07295 -6.82706 17551 ft 452 kts 338°
2026-04-24 22:50 40.10235 -6.84189 17803 ft 454 kts 338°
2026-04-24 22:51 40.13152 -6.85662 18051 ft 456 kts 338°
2026-04-24 22:51 40.16120 -6.87162 18303 ft 457 kts 338°
2026-04-24 22:51 40.19095 -6.88667 18554 ft 459 kts 338°
2026-04-24 22:51 40.22082 -6.90179 18804 ft 460 kts 338°
2026-04-24 22:52 40.25077 -6.91696 19056 ft 461 kts 338°
2026-04-24 22:52 40.27058 -6.92700 19220 ft 461 kts 338°